This is the latest recevied weather packets stored in our database for station/object I2HLY-4. If no packets are shown the sender has not sent any weather packets the latest 10 day(s).
| Time | Temp. | Humidity | Pressure | Rain* | Wind** | Luminosity | Snow |
|---|---|---|---|---|---|---|---|
| 1777423648 | 10° C | 96% | 1018.6 hPa | 13.97 mm | - | - | - |
| 1777422741 | 10° C | 96% | 1018.4 hPa | 10.92 mm | - | - | - |
| 1777421841 | 10.56° C | 96% | 1018.4 hPa | 7.11 mm | - | - | - |
| 1777420043 | 10.56° C | 94% | 1018.2 hPa | 2.03 mm | - | - | - |
| 1777419141 | 10° C | 95% | 1018 hPa | 1.02 mm | - | - | - |
| 1777418241 | 10.56° C | 95% | 1018.1 hPa | 1.02 mm | - | - | - |
| 1777417345 | 10° C | 95% | 1018.2 hPa | 4.06 mm | - | - | - |
| 1777416443 | 10.56° C | 95% | 1018.2 hPa | 3.05 mm | - | - | - |
| 1777415536 | 10.56° C | 94% | 1018.3 hPa | 4.06 mm | - | - | - |
| 1777414634 | 10.56° C | 94% | 1018.2 hPa | 18.03 mm | - | - | - |
| 1777413730 | 10.56° C | 94% | 1018.2 hPa | 14.99 mm | - | - | - |
| 1777412832 | 10.56° C | 93% | 1018.3 hPa | 14.99 mm | - | - | - |
| 1777411949 | 11.11° C | 91% | 1018.1 hPa | 13.97 mm | - | - | - |
| 1777411049 | 12.22° C | 86% | 1017.9 hPa | 0 mm | - | - | - |
| 1777410149 | 12.22° C | 82% | 1017.7 hPa | 0 mm | - | - | - |
| 1777409247 | 12.22° C | 80% | 1017.4 hPa | 0 mm | - | - | - |
| 1777408332 | 12.22° C | 81% | 1017.5 hPa | 0 mm | - | - | - |
| 1777407431 | 12.22° C | 82% | 1017.5 hPa | 0 mm | - | - | - |
| 1777406539 | 12.22° C | 81% | 1017.6 hPa | 0 mm | - | - | - |
| 1777405642 | 12.22° C | 81% | 1017.7 hPa | 0 mm | - | - | - |
| 1777404739 | 12.22° C | 83% | 1017.5 hPa | 0 mm | - | - | - |
| 1777403837 | 12.78° C | 84% | 1017.5 hPa | 0 mm | - | - | - |
| 1777402938 | 12.78° C | 83% | 1017.4 hPa | 0 mm | - | - | - |
| 1777402039 | 12.78° C | 83% | 1017.5 hPa | 0 mm | - | - | - |
| 1777401140 | 12.78° C | 82% | 1017.4 hPa | 0 mm | - | - | - |
* Rain latest hour (hover to see other rain measurements)
** Current wind speed in m/s (hover to see current wind gust speed)